Location: Sungai Laei
(2.6000°N, 113.7167°E)
Time: 10:06:00
(UTC+00:00)

Envisat - Pass Details

Date: 22 May 2022
Orbit: 763 x 765 km, 98.2° (Epoch: 06 July)

Event Time Altitude Azimuth Distance (km) Brightness Sun altitude
Rises 20:50:15 0° 6° (N) 3,214 6.6 -20.4°
Reaches altitude 10° 20:52:34 10° 3° (N) 2,290 5.8 -19.8°
Maximum altitude 20:57:33 64° 282° (WNW) 843 2.9 -18.7°
Enters shadow 21:00:45 22° 206° (SSW) 1,608 4.2 -18.0°
